Regional Weather Roundup
Issued by NWS

Home | Current Version | Previous Version | Graphics & Text | Print | Product List | Glossary On
Versions: 1 2 3 4 5 6 7 8 9 10 11 12 13 14 15 16 17 18 19 20 21 22 23 24 25 26 27 28 29 30 31 32 33 34 35 36 37 38 39 40 41 42 43 44 45 46 47 48 49 50
579
ASUS44 KLIX 161910
RWRLA
LOUISIANA WEATHER ROUNDUP
NATIONAL WEATHER SERVICE NEW ORLEANS LA
200 PM CDT TUE SEP 16 2014

NOTE: "FAIR" INDICATES FEW OR NO CLOUDS BELOW 12,000 FEET WITH NO
      SIGNIFICANT WEATHER AND/OR OBSTRUCTIONS TO VISIBILITY.
      SKY/WX - SKY CONDITION AND SIGNIFICANT WEATHER.
      TMP - AIR TEMPERATURE.    DP   - DEWPOINT TEMPERATURE.
      RH  - RELATIVE HUMIDITY.  PRES - PRESSURE.
      HX  - HEAT INDEX.         WCI  - WIND CHILL INDEX.

*  THESE STATIONS ARE NOT NWS OR FAA STATIONS AND ARE NOT UNDER
   NWS QUALITY CONTROL.

LAZ040-048-061>063-065-066-069-162000-
SOUTHEAST LOUISIANA

CITY           SKY/WX    TMP DP  RH WIND       PRES   REMARKS
N.O. AUDUBON     N/A     86  76  72 MISG        N/A  HX  95
N.O. INTL ARPT PTSUNNY   84  71  65 S5        30.01F
N.O. LAKEFRONT MOSUNNY   86  73  65 S8        30.02F
N.O. DOWNTOWN* FAIR      84  73  70 SE7       30.02F
SLIDELL        CLOUDY    84  75  74 S7        30.00F
BATON ROUGE    PTSUNNY   85  76  74 SW8       30.01F THUNDER
BOOTHVILLE     RAIN      78  76  93 N6        30.04F FOG
BELLE CHASSE   PTSUNNY   82  75  79 SE8       30.01F
BOGALUSA*      FAIR      89  74  60 NE6       30.02F HX  98
GALLIANO*      NOT AVBL
NEW ROADS*     MOCLDY    89  74  61 N6        30.01F HX  97
GONZALES*      MOCLDY    88  80  76 W7        30.00F HX 103
HAMMOND*       TSTM      79  72  78 S8        30.05S
HOUMA*         PTSUNNY   88  72  58 S9        30.03F
PORT FOURCHON* NOT AVBL

$$

LAZ041-044-053-054-162000-
SOUTHWEST LOUISIANA

CITY           SKY/WX    TMP DP  RH WIND       PRES   REMARKS
LAKE CHARLES   TSTM      76  74  93 SW6       30.04F
LAFAYETTE      PTSUNNY   86  76  71 S12       30.02F HX  96
PATTERSON      PTSUNNY   79  75  89 SW7       30.07S
SALT POINT       N/A     84  76  76 VRB3      30.04F
NEW IBERIA     HVY RAIN  78  75  90 S8        30.04S FOG
CHENAULT AIRPK LGT RAIN  77  73  88 SW9       30.04

$$

LAZ027-028-162000-
CENTRAL LOUISIANA

CITY           SKY/WX    TMP DP  RH WIND       PRES   REMARKS
FORT POLK      LGT RAIN  84  75  74 NE5       30.03F
ALEXANDRIA INT MOSUNNY   91  74  57 VRB3      30.01F HX 100
ALEXANDRIA     MOSUNNY   92  71  50 E8        30.03F HX  98

$$

LAZ001-002-162000-
NORTHWEST LOUISIANA

CITY           SKY/WX    TMP DP  RH WIND       PRES   REMARKS
SHREVEPORT     PTSUNNY   89  67  47 E6        30.04F
BARKSDALE AFB  PTSUNNY   88  68  51 VRB2      30.05F
DTN SHREVEPORT PTSUNNY   87  69  54 CALM      30.05F

$$

LAZ014-016-162000-
NORTHEAST LOUISIANA

CITY           SKY/WX    TMP DP  RH WIND       PRES   REMARKS
MONROE         PTSUNNY   86  71  60 N7        30.06F
TALLULAH       PTSUNNY   87  68  52 N9        30.05F

$$




USA.gov is the U.S. government's official web portal to all federal, state and local government web resources and services.